OPS 4682 DEB, 51488

Orbit data source: Space-Track

OPS 4682 DEB, 51488 is space debris in LEO originally from a launch on Sat, 03 Apr 1965 UTC launched from the Air Force Western Test Range (AFWTR). Debris objects in space refer to the collection of defunct objects orbiting the Earth. Examples of debris include non-operational satellites, rocket bodies, and fragments generated from explosions, collisions, or faulty payload assembly.

Loading next visibility...
Identifier
51488, 1965-027FY
Orbit
LEO
Country
Flag of USUS
Related business
Manufacturer
Unknown
Mission
Spacecraft
Bus & Motor
Unknown
Mass
Unknown
Launch date (UTC)
1965-04-03 (61 years ago)
Launch vehicle
Unknown
Launch site
Air Force Western Test Range (AFWTR)
Object type
Payload
Rocket body
Debris
Shape & HBR
Unknown shape, 1.1 m
Radar Cross Section
Small (<0.1 m²)

Expand to show TLE details & history
Last TLE update: 11 hours ago

TLE from 11 hours ago
0 OPS 4682 DEB
1 51488U 65027FY  26221.63308038 -.00000603  00000-0 -19852-2 0  9998
2 51488  90.2454 352.3897 0021809 110.1032 250.2440 13.01483597550308
Epoch: 2026-08-09T15:11Z
TLE epoch observation values (Epoch: 2026-08-09T15:11:38.144Z)
Latitude
-0.00008°
Longitude
166.35349°
Altitude
1,264.826 km
Speed
7.22 km/s
True Right ascension
23h 29m 33s
True Declination
0° 00' 00"
Sunlit
Object was in full shadow at epoch
Visualization orbit readout
Latitude
Unknown
Longitude
Unknown
Altitude
Unknown
Speed
Unknown
Apparent Right ascension
Unknown
Apparent Declination
Unknown
Sunlit
N/A
Visualization observer readout
Local Sidereal Time
16:09:36
Azimuth
Unknown
Elevation
Unknown
Doppler factor
Unknown
Orbital elements
Apogee altitude
1,270.048 km
Perigee altitude
1,236.76 km
Semi-major axis
7,631.541 km
Eccentricity
0.00218
Inclination
90.2454°
RAAN
352.3897°
Arg. of periapsis
110.1032°
True anomaly
250.00901°
Mean anomaly
250.244°
Eccentric anomaly
250.12649°
Mean motion
3.25555 °/min
Orbital period
110.58 mins
BSTAR
-0.0019852
Loading maneuver chart data...
Computing Atmospheric mass density...
Loading historical data...
Loading historical data...
Loading historical data...
Loading historical data...
Loading historical data...
Loading historical data...
Loading historical data...

Documentation

Showing up to 5 results
|